Location: Erdweis
(48.5167°N, 15.3500°E)
Time: 02:39:07
(UTC+00:00)

Meteor 2-19 Rocket - Pass Details

Date: 18 September 2020
Orbit: 935 x 959 km, 82.5° (Epoch: 29 October)

Event Time Altitude Azimuth Distance (km) Brightness Sun altitude
Rises 19:57:06 0° 351° (N) 3,641 8.2 -27.3°
Reaches altitude 10° 19:59:38 10° 353° (N) 2,688 7.4 -27.6°
Enters shadow 20:05:40 75° 67° (ENE) 984 4.3 -28.4°
